Location: Six Mile Lake
(44.9000°N, 79.7170°W)
Time: 04:13:50
(UTC-04:00)

DUCHIFAT 1 - Visible Passes

Search period start: 25 June 2022 00:00
Search period end: 05 July 2022 00:00
Orbit: 579 x 598 km, 98.0° (Epoch: 24 June)

Date Brightness Start Highest point End Pass type
(mag) Time Alt. Az. Time Alt. Az. Time Alt. Az.
25 Jun ? 02:34:39 10° E 02:35:15 10° E 02:35:52 10° E visible
25 Jun ? 04:07:02 10° N 04:11:13 75° WNW 04:14:44 14° SSW visible
26 Jun ? 02:41:09 10° ENE 02:42:59 13° E 02:44:49 10° ESE visible
26 Jun ? 04:14:42 10° N 04:18:51 62° WNW 04:22:26 13° SSW visible
27 Jun ? 02:48:14 10° NE 02:50:41 15° E 02:53:09 10° SE visible
27 Jun ? 04:22:23 10° N 04:26:27 51° WNW 04:30:09 12° SSW visible
28 Jun ? 02:55:29 10° NE 02:58:24 18° E 03:01:18 10° SE visible
28 Jun ? 04:30:05 10° N 04:34:03 43° WNW 04:37:51 11° SW visible
29 Jun ? 03:02:50 10° NE 03:06:05 21° E 03:09:02 11° SE visible
29 Jun ? 04:37:48 10° N 04:41:39 36° WNW 04:45:29 10° SW visible
30 Jun ? 03:10:15 10° NE 03:13:46 25° E 03:16:43 13° SSE visible
30 Jun ? 04:45:33 10° N 04:49:13 30° WNW 04:52:53 10° SW visible
01 Jul ? 03:17:41 10° NE 03:21:26 30° E 03:24:24 14° SSE visible
01 Jul ? 04:53:18 10° N 04:56:47 26° WNW 05:00:15 10° WSW visible
02 Jul ? 03:25:10 10° NNE 03:29:05 36° E 03:32:05 15° SSE visible
02 Jul ? 05:01:06 10° NNW 05:04:20 22° WNW 05:07:34 10° WSW visible
03 Jul ? 03:32:41 10° NNE 03:36:43 44° E 03:39:45 16° SSE visible
04 Jul ? 03:40:13 10° NNE 03:44:21 53° E 03:47:25 17° S visible
